Weather History for Des Moines, IA

Change the Weather History Date:

Wednesday, February 12, 2014

  Actual Average Record
Temperature  
Mean Temperature 21 °F 26 °F  
Max Temperature 29 °F 35 °F 70 °F (1990)
Min Temperature 12 °F 18 °F -21 °F (1905)
Degree Days  
Heating Degree Days 44 39  
Month to date heating degree days 658 482  
Since 1 July heating degree days 4663 4262  
Cooling Degree Days 0 0  
Month to date cooling degree days 0 0  
Year to date cooling degree days 0 0  
Moisture  
Dew Point 10 °F    
Average Humidity 67    
Maximum Humidity 80    
Minimum Humidity 53    
Precipitation  
Precipitation 0.03 in 0.05 in 0.74 in (1949)
Month to date precipitation 0.54 0.50  
Year to date precipitation 1.04 1.50  
Snow  
Snow 0.30 in 0.30 in 6.50 in (1894)
Month to date snowfall 8.9 3.8  
Since 1 July snowfall 31.4 24.2  
Snow Depth 5.00 in    
Sea Level Pressure  
Sea Level Pressure 30.09 in    
Wind  
Wind Speed 7 mph (South)    
Max Wind Speed 15 mph    
Max Gust Speed 19 mph    
Visibility 7 miles    
Events Snow    
T = Trace of Precipitation, MM = Missing Value Source: NWS Daily Summary

Daily Weather History Graph

Daily Weather History Graph

Search for Another Location

Airport:

Trip Planner

Search our weather history database for the weather conditions in past years. The results will help you decide how hot, cold, wet, or windy it might be!

Date:

Astronomy

Feb. 12, 2014 Rise Set
Actual Time 7:13 AM CST 5:44 PM CST
Civil Twilight 6:45 AM CST 6:13 PM CST
Nautical Twilight 6:12 AM CST 6:45 PM CST
Astronomical Twilight 5:40 AM CST 7:18 PM CST
Moon 3:58 PM CST (2/12) 5:31 AM CST (2/12)
Length of Visible Light 11h 28m
Length of Day
10h 30m
Waxing Gibbous, 95% of the Moon is Illuminated
Feb 12
Waxing Gibbous
Feb 14
Full
Feb 22
Last Quarter
Mar 1
New
Mar 8
First Quarter

Hourly Weather History & Observations

Time (CST) Temp. Windchill Dew Point Humidity Pressure Visibility Wind Dir Wind Speed Gust Speed Precip Events Conditions
12:54 AM 12.0 °F -2.0 °F -0.9 °F 56% 30.23 in 10.0 mi South 11.5 mph - N/A   Overcast
1:54 AM 12.9 °F -0.2 °F -0.0 °F 56% 30.22 in 10.0 mi South 10.4 mph - N/A   Overcast
2:54 AM 14.0 °F 0.5 °F 1.0 °F 56% 30.20 in 10.0 mi South 11.5 mph - N/A   Overcast
3:54 AM 15.1 °F 1.8 °F 3.0 °F 59% 30.17 in 10.0 mi South 11.5 mph - N/A   Overcast
4:54 AM 16.0 °F 3.6 °F 3.0 °F 57% 30.16 in 9.0 mi South 10.4 mph - 0.00 in Snow Light Snow
5:18 AM 16.0 °F 1.7 °F 5.0 °F 62% 30.09 in 3.0 mi South 13.8 mph - 0.00 in Snow Light Snow
5:32 AM 16.0 °F 2.9 °F 5.0 °F 62% 30.09 in 7.0 mi South 11.5 mph - 0.00 in Snow Light Snow
5:54 AM 16.0 °F 2.3 °F 6.1 °F 65% 30.13 in 7.0 mi South 12.7 mph - 0.00 in Snow Light Snow
6:08 AM 17.1 °F 4.3 °F 5.0 °F 59% 30.08 in 9.0 mi South 11.5 mph - 0.00 in Snow Light Snow
6:36 AM 17.1 °F 3.6 °F 5.0 °F 59% 30.08 in 9.0 mi South 12.7 mph - 0.00 in Snow Light Snow
6:54 AM 17.1 °F 4.3 °F 6.1 °F 62% 30.12 in 9.0 mi South 11.5 mph - 0.00 in Snow Light Snow
7:30 AM 16.0 °F 6.3 °F 8.1 °F 71% 30.08 in 0.8 mi South 6.9 mph - 0.00 in Snow Light Snow
7:43 AM 16.0 °F 4.4 °F 9.0 °F 74% 30.08 in 0.5 mi South 9.2 mph - 0.00 in Snow Snow
7:52 AM 15.8 °F 5.1 °F 8.6 °F 73% 30.08 in 2.0 mi South 8.1 mph - 0.01 in Snow Light Snow
7:54 AM 16.0 °F 6.3 °F 10.0 °F 77% 30.14 in 2.0 mi South 6.9 mph - 0.01 in Snow Light Snow
8:14 AM 16.0 °F 6.3 °F 10.0 °F 77% 30.09 in 2.0 mi SSW 6.9 mph - 0.00 in Snow Light Snow
8:28 AM 16.0 °F 7.4 °F 10.0 °F 77% 30.10 in 1.0 mi SSW 5.8 mph - 0.00 in Snow Light Snow
8:54 AM 16.0 °F 7.4 °F 10.9 °F 81% 30.15 in 1.0 mi SSW 5.8 mph - 0.01 in Snow Light Snow
9:29 AM 16.0 °F 10.4 °F 12.0 °F 84% 30.10 in 2.5 mi South 3.5 mph - 0.01 in Snow Light Snow
9:51 AM 17.6 °F 12.3 °F 12.2 °F 79% 30.10 in 4.0 mi South 3.5 mph - 0.01 in Snow Light Snow
9:54 AM 17.1 °F 11.7 °F 12.0 °F 81% 30.15 in 4.0 mi SSW 3.5 mph - 0.01 in Snow Light Snow
10:17 AM 18.0 °F 12.7 °F 12.0 °F 78% 30.10 in 6.0 mi South 3.5 mph - 0.00 in Snow Light Snow
10:54 AM 19.0 °F 12.3 °F 12.9 °F 77% 30.15 in 9.0 mi SSW 4.6 mph - 0.00 in   Overcast
11:54 AM 23.0 °F 18.4 °F 14.0 °F 68% 30.14 in 7.0 mi WSW 3.5 mph - 0.00 in Snow Light Snow
12:54 PM 25.0 °F - 15.1 °F 66% 30.11 in 10.0 mi Calm Calm - 0.00 in   Mostly Cloudy
1:38 PM 26.1 °F 20.5 °F 14.0 °F 60% 30.05 in 10.0 mi NNE 4.6 mph - N/A   Overcast
1:54 PM 26.1 °F 17.6 °F 15.1 °F 63% 30.09 in 9.0 mi NE 8.1 mph - N/A   Overcast
2:26 PM 27.0 °F 20.5 °F 15.1 °F 61% 30.03 in 10.0 mi East 5.8 mph - N/A   Overcast
2:54 PM 26.1 °F 20.5 °F 15.1 °F 63% 30.08 in 10.0 mi NE 4.6 mph - N/A   Overcast
3:19 PM 26.1 °F 21.9 °F 15.1 °F 63% 30.06 in 9.0 mi North 3.5 mph - N/A   Overcast
3:36 PM 26.1 °F 21.9 °F 15.1 °F 63% 30.06 in 9.0 mi Variable 3.5 mph - N/A   Overcast
3:54 PM 26.1 °F 21.9 °F 15.1 °F 63% 30.09 in 9.0 mi Variable 3.5 mph - N/A   Overcast
4:54 PM 26.1 °F 20.5 °F 14.0 °F 60% 30.06 in 8.0 mi NE 4.6 mph - N/A   Partly Cloudy
5:54 PM 23.0 °F 15.8 °F 14.0 °F 68% 30.05 in 8.0 mi SE 5.8 mph - N/A   Clear
6:54 PM 21.9 °F 14.5 °F 12.9 °F 68% 30.03 in 9.0 mi SE 5.8 mph - N/A   Clear
7:54 PM 19.9 °F - 12.9 °F 74% 30.06 in 8.0 mi Calm Calm - N/A   Mostly Cloudy
8:54 PM 17.1 °F 10.0 °F 12.0 °F 81% 30.04 in 7.0 mi South 4.6 mph - N/A   Mostly Cloudy
9:42 PM 19.0 °F 12.3 °F 12.9 °F 77% 29.97 in 6.0 mi South 4.6 mph - N/A   Haze
9:54 PM 19.9 °F 12.1 °F 14.0 °F 78% 30.01 in 6.0 mi South 5.8 mph - N/A   Haze
10:36 PM 19.0 °F 10.0 °F 12.9 °F 77% 29.94 in 6.0 mi South 6.9 mph - N/A   Haze
10:54 PM 18.0 °F 7.7 °F 12.0 °F 78% 29.97 in 6.0 mi SSE 8.1 mph - N/A   Haze
11:54 PM 19.0 °F 10.0 °F 12.9 °F 77% 29.94 in 7.0 mi South 6.9 mph - N/A   Overcast